Regional Weather Roundup
Issued by NWS

Home | Current Version | Previous Version | Text Only | Print | Product List | Glossary On
Versions: 1 2 3 4 5 6 7 8 9 10 11 12 13 14 15 16 17 18 19 20 21 22 23 24 25 26 27 28 29 30 31 32 33 34 35 36 37 38 39 40 41 42 43 44 45 46 47 48 49 50
000
ASUS43 KTOP 290108
RWRKS

WEATHER ROUNDUP FOR KANSAS
NATIONAL WEATHER SERVICE GOODLAND KS
800 PM CDT WED JUN 28 2017

NOTE:  "FAIR" INDICATES FEW OR NO CLOUDS BELOW 12,000 FEET WITH NO
SIGNIFICANT WEATHER AND/OR OBSTRUCTIONS TO VISIBILITY.

KSZ001>006-013>018-027>032-041>047-290200-
NORTHWEST KANSAS

CITY           SKY/WX    TMP DP  RH WIND       PRES   REMARKS
GOODLAND       MOSUNNY   80  56  43 SE7       29.78S
HILL CITY      SUNNY     90  66  45 E7        29.69S
RUSSELL        MOSUNNY   92  63  38 S15       29.66R
$$

KSZ061>065-074>080-084>089-290200-
SOUTHWEST KANSAS

CITY           SKY/WX    TMP DP  RH WIND       PRES   REMARKS
DODGE CITY     MOSUNNY   91  61  36 S18G25    29.69R
ELKHART          N/A     88  55  32 SE8         N/A
GARDEN CITY    SUNNY     93  58  30 SE10      29.69F
GREAT BEND     SUNNY     90  64  42 S26G32    29.67S
LIBERAL        SUNNY     94  59  31 SW7       29.70F
PRATT          CLEAR     88  59  37 S21G29    29.71S
$$

KSZ066>073-081>083-090>101-290200-
SOUTHEAST KANSAS

CITY           SKY/WX    TMP DP  RH WIND       PRES   REMARKS
CHANUTE        PTCLDY    85  68  56 S15G23    29.79R
COFFEYVILLE    CLEAR     85  69  58 S15       29.79S
HUTCHINSON     CLEAR     92  60  34 S25G33    29.70S
MEDICINE LODGE   N/A     91  60  35 S20G28    29.70R
NEWTON         CLEAR     88  65  46 S21G26    29.73S
PARSONS        CLEAR     84  68  58 S10G20    29.81R
WICHITA INTL   PTCLDY    89  65  44 S21G29    29.73R
WICHITA JABRA  CLEAR     86  67  52 S15       29.74S
WICHITA MCCONL CLEAR     88  65  47 S17       29.75R
WINFIELD       CLEAR     85  67  54 S16G25    29.77R
$$

KSZ007>012-019>026-033>040-048>060-102>105-290200-
NORTHEAST KANSAS

CITY           SKY/WX    TMP DP  RH WIND       PRES   REMARKS
CONCORDIA      CLEAR     91  68  46 S6        29.67S HX  95
EMPORIA        CLEAR     85  69  58 S21G29    29.74F
LAWRENCE       CLEAR     86  70  58 S17G25    29.71F
MANHATTAN      CLEAR     89  68  49 S17G26    29.68R
MARYSVILLE     MOCLDY    90  70  51 S12       29.67R HX  95
OLATHE IND     PTCLDY    84  68  58 S20       29.77R
OLATHE EXE     PTCLDY    83  70  64 S14G25    29.77S
SALINA         CLEAR     93  62  35 S16G26    29.67R
TOPEKA BILLARD CLEAR     87  70  56 S16G22    29.70R
TOPEKA FORBES  CLEAR     87  70  56 S17G28    29.71S
$$




USA.gov is the U.S. government's official web portal to all federal, state and local government web resources and services.